Location: Bednik
(45.3500°N, 16.3833°E)
Time: 05:40:16
(UTC+00:00)

DMSP B5D2-2 - Pass Details

Date: 08 August 2020
Orbit: 790 x 805 km, 98.3° (Epoch: 19 September)

Event Time Altitude Azimuth Distance (km) Brightness Sun altitude
Rises 18:58:16 0° 13° (NNE) 3,302 7.6 -8.0°
Reaches altitude 10° 19:00:36 10° 13° (NNE) 2,370 6.8 -8.4°
Maximum altitude 19:05:51 88° 285° (WNW) 802 4.1 -9.1°
Drops below altitude 10° 19:11:05 10° 196° (SSW) 2,361 6.4 -9.9°
Sets 19:13:24 0° 196° (SSW) 3,289 7.1 -10.2°
